Time,TemperatureF,DewpointF,PressureIn,WindDirection,WindDirectionDegrees,WindSpeedMPH,WindSpeedGustMPH,Humidity,HourlyPrecipIn,Conditions,Clouds,dailyrainin,SoftwareType,DateUTC
2013-01-14 00:04:00,2.7,-3.0,30.07,WSW,252,3.0,-999.0,77,-99.99,,,0.00,weatherlink.com 1.10,2013-01-14 07:04:00,
2013-01-14 00:19:00,2.9,-3.0,30.07,WSW,255,3.0,-999.0,76,-99.99,,,0.00,weatherlink.com 1.10,2013-01-14 07:19:00,
2013-01-14 00:34:00,2.4,-4.0,30.07,WSW,254,4.0,-999.0,73,-99.99,,,0.00,weatherlink.com 1.10,2013-01-14 07:34:00,
2013-01-14 00:49:00,2.0,-4.0,30.07,North,-999,-999.0,-999.0,75,-99.99,,,0.00,weatherlink.com 1.10,2013-01-14 07:49:00,
2013-01-14 01:04:00,2.0,-5.0,30.06,North,-999,-999.0,-999.0,74,-99.99,,,0.00,weatherlink.com 1.10,2013-01-14 08:04:00,
2013-01-14 01:19:00,2.7,-4.0,30.06,North,-999,-999.0,-999.0,75,-99.99,,,0.00,weatherlink.com 1.10,2013-01-14 08:19:00,
2013-01-14 01:34:00,3.2,-3.0,30.06,North,-999,-999.0,-999.0,75,-99.99,,,0.00,weatherlink.com 1.10,2013-01-14 08:34:00,
2013-01-14 01:49:00,3.6,-3.0,30.06,North,-999,-999.0,-999.0,74,-99.99,,,0.00,weatherlink.com 1.10,2013-01-14 08:49:00,
2013-01-14 02:04:00,3.6,-3.0,30.06,North,-999,-999.0,-999.0,73,-99.99,,,0.00,weatherlink.com 1.10,2013-01-14 09:04:00,
2013-01-14 02:19:00,3.8,-3.0,30.06,North,-999,-999.0,-999.0,74,-99.99,,,0.00,weatherlink.com 1.10,2013-01-14 09:19:00,
2013-01-14 02:34:00,3.9,-3.0,30.06,North,-999,-999.0,-999.0,74,-99.99,,,0.00,weatherlink.com 1.10,2013-01-14 09:34:00,
2013-01-14 02:49:00,4.0,-3.0,30.07,North,-999,-999.0,-999.0,74,-99.99,,,0.00,weatherlink.com 1.10,2013-01-14 09:49:00,
2013-01-14 03:04:00,3.7,-3.0,30.07,West,274,3.0,-999.0,74,-99.99,,,0.00,weatherlink.com 1.10,2013-01-14 10:04:00,
2013-01-14 03:19:00,4.0,-2.0,30.07,NNE,20,0.0,-999.0,77,-99.99,,,0.00,weatherlink.com 1.10,2013-01-14 10:19:00,
2013-01-14 03:34:00,4.7,-1.0,30.07,WNW,284,4.0,-999.0,76,-99.99,,,0.00,weatherlink.com 1.10,2013-01-14 10:34:00,
2013-01-14 03:49:00,4.6,-2.0,30.07,West,265,4.0,-999.0,74,-99.99,,,0.00,weatherlink.com 1.10,2013-01-14 10:49:00,
2013-01-14 04:04:00,4.9,-1.0,30.07,West,265,1.0,-999.0,75,-99.99,,,0.00,weatherlink.com 1.10,2013-01-14 11:04:00,
2013-01-14 04:19:00,5.3,-1.0,30.07,South,179,3.0,-999.0,75,-99.99,,,0.00,weatherlink.com 1.10,2013-01-14 11:19:00,
2013-01-14 04:34:00,5.1,-2.0,30.07,SW,236,2.0,-999.0,73,-99.99,,,0.00,weatherlink.com 1.10,2013-01-14 11:34:00,
2013-01-14 04:49:00,5.2,-1.0,30.07,SW,229,1.0,-999.0,74,-99.99,,,0.00,weatherlink.com 1.10,2013-01-14 11:49:00,
2013-01-14 05:04:00,5.7,-1.0,30.07,SW,229,0.0,-999.0,75,-99.99,,,0.00,weatherlink.com 1.10,2013-01-14 12:04:00,
2013-01-14 05:19:00,5.9,0.0,30.07,SW,229,0.0,-999.0,75,-99.99,,,0.00,weatherlink.com 1.10,2013-01-14 12:19:00,
2013-01-14 05:34:00,5.7,-1.0,30.07,SW,229,0.0,-999.0,75,-99.99,,,0.00,weatherlink.com 1.10,2013-01-14 12:34:00,
2013-01-14 05:49:00,5.6,-2.0,30.07,WSW,241,3.0,-999.0,72,-99.99,,,0.00,weatherlink.com 1.10,2013-01-14 12:49:00,
2013-01-14 06:04:00,5.0,-2.0,30.08,WSW,244,2.0,-999.0,72,-99.99,,,0.00,weatherlink.com 1.10,2013-01-14 13:04:00,
2013-01-14 06:19:00,4.5,-2.0,30.09,SSW,194,0.0,-999.0,73,-99.99,,,0.00,weatherlink.com 1.10,2013-01-14 13:19:00,
2013-01-14 06:34:00,4.8,-2.0,30.09,SSW,194,1.0,-999.0,72,-99.99,,,0.00,weatherlink.com 1.10,2013-01-14 13:34:00,
2013-01-14 06:49:00,4.9,-2.0,30.10,SW,225,2.0,-999.0,73,-99.99,,,0.00,weatherlink.com 1.10,2013-01-14 13:49:00,
2013-01-14 07:04:00,4.5,-3.0,30.10,SW,233,3.0,-999.0,71,-99.99,,,0.00,weatherlink.com 1.10,2013-01-14 14:04:00,
2013-01-14 07:19:00,4.1,-3.0,30.11,SW,230,1.0,-999.0,72,-99.99,,,0.00,weatherlink.com 1.10,2013-01-14 14:19:00,
2013-01-14 07:34:00,4.3,-3.0,30.11,WSW,249,2.0,-999.0,71,-99.99,,,0.00,weatherlink.com 1.10,2013-01-14 14:34:00,
2013-01-14 07:49:00,4.5,-2.0,30.11,WSW,244,0.0,-999.0,73,-99.99,,,0.00,weatherlink.com 1.10,2013-01-14 14:49:00,
2013-01-14 08:04:00,4.7,-3.0,30.11,West,267,3.0,-999.0,72,-99.99,,,0.00,weatherlink.com 1.10,2013-01-14 15:04:00,
2013-01-14 08:19:00,5.3,-2.0,30.11,SW,229,2.0,-999.0,73,-99.99,,,0.00,weatherlink.com 1.10,2013-01-14 15:19:00,
2013-01-14 08:34:00,5.9,-1.0,30.11,SSE,148,2.0,-999.0,74,-99.99,,,0.00,weatherlink.com 1.10,2013-01-14 15:34:00,
2013-01-14 08:49:00,6.8,0.0,30.11,SSE,148,2.0,-999.0,73,-99.99,,,0.00,weatherlink.com 1.10,2013-01-14 15:49:00,
2013-01-14 09:04:00,7.8,0.0,30.11,SSE,147,1.0,-999.0,71,-99.99,,,0.00,weatherlink.com 1.10,2013-01-14 16:04:00,
2013-01-14 09:19:00,8.5,2.0,30.11,SE,140,1.0,-999.0,76,-99.99,,,0.00,weatherlink.com 1.10,2013-01-14 16:19:00,
2013-01-14 09:34:00,10.0,6.0,30.11,SSE,157,2.0,-999.0,85,-99.99,,,0.00,weatherlink.com 1.10,2013-01-14 16:34:00,
2013-01-14 09:49:00,9.9,4.0,30.10,SE,138,3.0,-999.0,76,-99.99,,,0.00,weatherlink.com 1.10,2013-01-14 16:49:00,
2013-01-14 10:04:00,9.4,3.0,30.10,SE,135,5.0,-999.0,75,-99.99,,,0.00,weatherlink.com 1.10,2013-01-14 17:04:00,
2013-01-14 10:19:00,9.7,3.0,30.09,South,171,5.0,-999.0,75,-99.99,,,0.00,weatherlink.com 1.10,2013-01-14 17:19:00,
2013-01-14 10:34:00,9.1,2.0,30.09,SSE,167,4.0,-999.0,74,-99.99,,,0.00,weatherlink.com 1.10,2013-01-14 17:34:00,
2013-01-14 10:49:00,9.0,3.0,30.09,South,171,5.0,-999.0,76,-99.99,,,0.00,weatherlink.com 1.10,2013-01-14 17:49:00,
2013-01-14 11:04:00,9.8,6.0,30.08,SSE,168,1.0,-999.0,85,-99.99,,,0.00,weatherlink.com 1.10,2013-01-14 18:04:00,
2013-01-14 11:19:00,10.9,7.0,30.07,SSE,159,0.0,-999.0,83,-99.99,,,0.00,weatherlink.com 1.10,2013-01-14 18:19:00,
2013-01-14 11:34:00,11.4,5.0,30.06,SE,144,3.0,-999.0,76,-99.99,,,0.00,weatherlink.com 1.10,2013-01-14 18:34:00,
2013-01-14 11:49:00,11.5,5.0,30.05,SSE,162,3.0,-999.0,75,-99.99,,,0.00,weatherlink.com 1.10,2013-01-14 18:49:00,
2013-01-14 12:04:00,12.0,5.0,30.05,SSE,150,2.0,-999.0,72,-99.99,,,0.00,weatherlink.com 1.10,2013-01-14 19:04:00,
2013-01-14 12:19:00,11.9,5.0,30.04,SE,140,2.0,-999.0,72,-99.99,,,0.00,weatherlink.com 1.10,2013-01-14 19:19:00,
2013-01-14 12:34:00,12.5,4.0,30.03,East,96,3.0,-999.0,70,-99.99,,,0.00,weatherlink.com 1.10,2013-01-14 19:34:00,
2013-01-14 12:49:00,12.2,4.0,30.03,North,9,2.0,-999.0,68,-99.99,,,0.00,weatherlink.com 1.10,2013-01-14 19:49:00,
2013-01-14 13:04:00,12.3,4.0,30.02,East,83,2.0,-999.0,69,-99.99,,,0.00,weatherlink.com 1.10,2013-01-14 20:04:00,
2013-01-14 13:19:00,12.5,4.0,30.02,NE,36,5.0,-999.0,68,-99.99,,,0.00,weatherlink.com 1.10,2013-01-14 20:19:00,
2013-01-14 13:34:00,12.8,5.0,30.02,NE,56,4.0,-999.0,70,-99.99,,,0.00,weatherlink.com 1.10,2013-01-14 20:34:00,
2013-01-14 13:49:00,12.3,4.0,30.02,East,99,3.0,-999.0,68,-99.99,,,0.00,weatherlink.com 1.10,2013-01-14 20:49:00,
2013-01-14 14:04:00,12.5,4.0,30.02,NNE,22,0.0,-999.0,69,-99.99,,,0.00,weatherlink.com 1.10,2013-01-14 21:04:00,
2013-01-14 14:19:00,13.4,5.0,30.03,ENE,72,0.0,-999.0,68,-99.99,,,0.00,weatherlink.com 1.10,2013-01-14 21:19:00,
2013-01-14 14:34:00,13.5,6.0,30.04,SE,142,0.0,-999.0,71,-99.99,,,0.00,weatherlink.com 1.10,2013-01-14 21:34:00,
2013-01-14 14:49:00,13.6,6.0,30.04,SE,142,4.0,-999.0,70,-99.99,,,0.00,weatherlink.com 1.10,2013-01-14 21:49:00,
2013-01-14 15:04:00,13.5,5.0,30.04,SSE,167,3.0,-999.0,69,-99.99,,,0.00,weatherlink.com 1.10,2013-01-14 22:04:00,
2013-01-14 15:19:00,12.9,5.0,30.05,SSW,194,4.0,-999.0,70,-99.99,,,0.00,weatherlink.com 1.10,2013-01-14 22:19:00,
2013-01-14 15:34:00,13.9,11.0,30.05,SSW,200,4.0,-999.0,87,-99.99,,,0.00,weatherlink.com 1.10,2013-01-14 22:34:00,
2013-01-14 15:49:00,14.6,10.0,30.06,South,173,2.0,-999.0,82,-99.99,,,0.00,weatherlink.com 1.10,2013-01-14 22:49:00,
2013-01-14 16:04:00,14.0,7.0,30.06,South,176,4.0,-999.0,75,-99.99,,,0.00,weatherlink.com 1.10,2013-01-14 23:04:00,
2013-01-14 16:19:00,12.7,6.0,30.06,SSW,196,4.0,-999.0,75,-99.99,,,0.00,weatherlink.com 1.10,2013-01-14 23:19:00,
2013-01-14 16:34:00,12.1,9.0,30.06,SSW,211,4.0,-999.0,85,-99.99,,,0.00,weatherlink.com 1.10,2013-01-14 23:34:00,
2013-01-14 16:49:00,9.6,4.0,30.07,SW,217,4.0,-999.0,79,-99.99,,,0.00,weatherlink.com 1.10,2013-01-14 23:49:00,
2013-01-14 17:04:00,11.3,6.0,30.07,SW,221,3.0,-999.0,80,-99.99,,,0.00,weatherlink.com 1.10,2013-01-15 00:04:00,
2013-01-14 17:19:00,11.4,5.0,30.08,SW,236,5.0,-999.0,74,-99.99,,,0.00,weatherlink.com 1.10,2013-01-15 00:19:00,
2013-01-14 17:34:00,10.4,1.0,30.08,WSW,258,4.0,-999.0,65,-99.99,,,0.00,weatherlink.com 1.10,2013-01-15 00:34:00,
2013-01-14 17:49:00,8.3,-1.0,30.08,WSW,238,5.0,-999.0,67,-99.99,,,0.00,weatherlink.com 1.10,2013-01-15 00:49:00,
2013-01-14 18:04:00,7.1,-1.0,30.08,WSW,250,4.0,-999.0,69,-99.99,,,0.00,weatherlink.com 1.10,2013-01-15 01:04:00,
2013-01-14 18:19:00,6.4,-2.0,30.08,WSW,250,4.0,-999.0,69,-99.99,,,0.00,weatherlink.com 1.10,2013-01-15 01:19:00,
2013-01-14 18:34:00,5.8,-2.0,30.08,West,261,3.0,-999.0,71,-99.99,,,0.00,weatherlink.com 1.10,2013-01-15 01:34:00,
2013-01-14 18:49:00,6.7,3.0,30.08,West,271,4.0,-999.0,85,-99.99,,,0.00,weatherlink.com 1.10,2013-01-15 01:49:00,
2013-01-14 19:04:00,7.0,2.0,30.08,West,265,3.0,-999.0,80,-99.99,,,0.00,weatherlink.com 1.10,2013-01-15 02:04:00,
2013-01-14 19:19:00,6.1,-1.0,30.08,WSW,252,4.0,-999.0,74,-99.99,,,0.00,weatherlink.com 1.10,2013-01-15 02:19:00,
2013-01-14 19:34:00,5.8,-2.0,30.08,WSW,256,6.0,-999.0,70,-99.99,,,0.00,weatherlink.com 1.10,2013-01-15 02:34:00,
2013-01-14 19:49:00,5.3,-3.0,30.08,WSW,252,6.0,-999.0,69,-99.99,,,0.00,weatherlink.com 1.10,2013-01-15 02:49:00,
2013-01-14 20:04:00,6.0,1.0,30.07,WSW,253,6.0,-999.0,81,-99.99,,,0.00,weatherlink.com 1.10,2013-01-15 03:04:00,
2013-01-14 20:19:00,7.0,4.0,30.07,WSW,250,7.0,-999.0,86,-99.99,,,0.00,weatherlink.com 1.10,2013-01-15 03:19:00,
2013-01-14 20:34:00,7.2,4.0,30.07,WSW,255,5.0,-999.0,87,-99.99,,,0.00,weatherlink.com 1.10,2013-01-15 03:34:00,
2013-01-14 20:49:00,6.3,2.0,30.06,WSW,250,6.0,-999.0,82,-99.99,,,0.00,weatherlink.com 1.10,2013-01-15 03:49:00,
2013-01-14 21:04:00,5.4,-2.0,30.06,West,262,10.0,-999.0,72,-99.99,,,0.00,weatherlink.com 1.10,2013-01-15 04:04:00,
2013-01-14 21:19:00,5.2,-3.0,30.05,WSW,249,6.0,-999.0,69,-99.99,,,0.00,weatherlink.com 1.10,2013-01-15 04:19:00,
2013-01-14 21:34:00,5.2,-3.0,30.05,WSW,254,7.0,-999.0,68,-99.99,,,0.00,weatherlink.com 1.10,2013-01-15 04:34:00,
2013-01-14 21:49:00,5.1,-4.0,30.05,WSW,255,7.0,-999.0,67,-99.99,,,0.00,weatherlink.com 1.10,2013-01-15 04:49:00,
2013-01-14 22:04:00,5.3,-4.0,30.04,WSW,257,5.0,-999.0,66,-99.99,,,0.00,weatherlink.com 1.10,2013-01-15 05:04:00,
2013-01-14 22:19:00,5.3,-4.0,30.05,West,270,5.0,-999.0,65,-99.99,,,0.00,weatherlink.com 1.10,2013-01-15 05:19:00,
2013-01-14 22:34:00,4.9,-4.0,30.05,WSW,252,7.0,-999.0,66,-99.99,,,0.00,weatherlink.com 1.10,2013-01-15 05:34:00,
2013-01-14 22:49:00,4.2,-4.0,30.05,West,264,5.0,-999.0,68,-99.99,,,0.00,weatherlink.com 1.10,2013-01-15 05:49:00,
2013-01-14 23:04:00,4.6,-4.0,30.05,West,275,8.0,-999.0,67,-99.99,,,0.00,weatherlink.com 1.10,2013-01-15 06:04:00,
2013-01-14 23:19:00,-999.0,-99.9,30.04,WSW,258,6.0,-999.0,-999,-99.99,,,0.00,weatherlink.com 1.10,2013-01-15 06:19:00,
2013-01-14 23:34:00,-999.0,-99.9,30.04,West,268,5.0,-999.0,-999,-99.99,,,0.00,weatherlink.com 1.10,2013-01-15 06:34:00,
2013-01-14 23:49:00,-999.0,-99.9,30.04,WSW,254,3.0,-999.0,-999,-99.99,,,0.00,weatherlink.com 1.10,2013-01-15 06:49:00,